Location: Namasale
(1.5000°N, 32.6167°E)
Time: 23:15:06
(UTC+00:00)

N. Korean satellite - Pass Details

Date: 09 December 2021
Orbit: 447 x 491 km, 97.3° (Epoch: 22 January)

Event Time Altitude Azimuth Distance (km) Brightness Sun altitude
Rises 02:36:12 0° 14° (NNE) 2,441 10.0 -15.7°
Reaches altitude 10° 02:38:12 10° 15° (NNE) 1,577 9.1 -15.2°
Maximum altitude 02:41:35 74° 101° (E) 477 6.6 -14.4°
Drops below altitude 10° 02:45:01 10° 186° (S) 1,608 9.4 -13.7°
Sets 02:47:04 0° 188° (S) 2,493 10.4 -13.2°
